Home   Weather   Melbourne Gardens   Past weeks
Flag for USA

Past Weather in Melbourne Gardens, Florida, USA — Yesterday and Last 2 Weeks

Now
85 °F

Passing clouds.


Feels Like: 95 °F
Forecast: 90 / 75 °F
Wind: 9 mph from Southeast

Location: Melbourne International Airport

Current Time: Oct 21, 2019 at 6:53:10 pm

Latest Report: Oct 21, 2019 at 5:53 pm


Visibility: 10 mi

Pressure: 29.96 "Hg

Humidity: 77%

Dew Point: 77 °F

Location of Melbourne GardensLocation

Past Weather in Melbourne Gardens — Graph

°F

Melbourne Gardens Temperature Yesterday

Maximum temperature yesterday: 90 °F (at 2:53 pm)
Minimum temperature yesterday: 77 °F (at 12:53 am)
Average temperature yesterday: 81 °F

High & Low Weather Summary for the Past Weeks

 TemperatureHumidityPressure
High90 °F (Oct 16, 2:53 pm)100% (Oct 10, 6:53 am)30.08 "Hg (Oct 10, 6:53 am)
Low68 °F (Oct 12, 5:53 am)52% (Oct 16, 2:53 pm)29.78 "Hg (Oct 19, 3:53 pm)
Average79 °F81%29.93 "Hg
* Reported Oct 6 4:53 pm — Oct 21 4:53 pm, Melbourne Gardens. Weather by CustomWeather, © 2019

Note: Actual official high and low records may vary slightly from our data, if they occured in-between our weather recording intervals... More about our weather records

Advertising

Melbourne Gardens Weather History for the Previous 24 Hours

Scroll right to see more
 ConditionsComfort  
Time TempWeatherWind HumidityBarometerVisibility
4:53 pm
Mon, Oct 21
86 °FScattered clouds.13 mph77%29.95 "Hg10 mi
3:53 pm87 °FPassing clouds.12 mph72%29.95 "Hg10 mi
2:53 pm88 °FScattered clouds.12 mph70%29.95 "Hg10 mi
1:53 pm88 °FPartly sunny.8 mph61%29.97 "Hg10 mi
12:53 pm89 °FScattered clouds.8 mph59%29.98 "Hg10 mi
11:53 am87 °FScattered clouds.9 mph63%29.99 "Hg10 mi
10:53 am84 °FSunny.8 mph74%29.99 "Hg10 mi
9:53 am82 °FScattered clouds.5 mph79%29.98 "Hg8 mi
8:53 am80 °FSunny.No wind87%29.98 "Hg10 mi
7:53 am77 °FOvercast.No wind94%29.97 "Hg10 mi
6:53 am77 °FOvercast.No wind94%29.96 "Hg10 mi
5:53 am76 °FOvercast.No wind97%29.94 "Hg10 mi
4:53 am76 °FOvercast.No wind94%29.93 "Hg10 mi
3:53 am76 °FOvercast.3 mph94%29.94 "Hg10 mi
2:53 am75 °FOvercast.5 mph94%29.94 "Hg10 mi
1:53 am76 °FOvercast.3 mph91%29.95 "Hg10 mi
12:53 am78 °FPassing clouds.5 mph84%29.95 "Hg10 mi
11:53 pm
Sun, Oct 20
78 °FClear.7 mph84%29.96 "Hg10 mi
10:53 pm79 °FClear.5 mph88%29.96 "Hg10 mi
9:53 pm80 °FClear.5 mph76%29.95 "Hg10 mi
8:53 pm80 °FClear.No wind71%29.94 "Hg10 mi
7:53 pm82 °FClear.No wind65%29.93 "Hg10 mi
6:53 pm84 °FPassing clouds.5 mph61%29.91 "Hg10 mi
Weather by CustomWeather, © 2019

See weather overview